Weather History for Baker, MT

Change the Weather History Date:

Thursday, March 20, 2014

  Actual Average Record
Temperature  
Mean Temperature 38 °F -  
Max Temperature 51 °F 49 °F 75 °F (2007)
Min Temperature 30 °F 28 °F -13 °F (2002)
Degree Days  
Heating Degree Days 27    
Moisture  
Dew Point 25 °F    
Average Humidity 58    
Maximum Humidity 79    
Minimum Humidity 37    
Precipitation  
Precipitation 0.00 in - - ()
Sea Level Pressure  
Sea Level Pressure 29.81 in    
Wind  
Wind Speed 12 mph (West)    
Max Wind Speed 25 mph    
Max Gust Speed 34 mph    
Visibility 10 miles    
Events      
Averages and records for this station are not official NWS values.
T = Trace of Precipitation, MM = Missing Value Source: NWS Daily Summary

Daily Weather History Graph

Daily Weather History Graph

Search for Another Location

Airport:

Trip Planner

Search our weather history database for the weather conditions in past years. The results will help you decide how hot, cold, wet, or windy it might be!

Date:

Astronomy

Mar. 20, 2014 Rise Set
Actual Time 6:59 AM MDT 7:09 PM MDT
Civil Twilight 6:29 AM MDT 7:39 PM MDT
Nautical Twilight 5:54 AM MDT 8:15 PM MDT
Astronomical Twilight 5:18 AM MDT 8:51 PM MDT
Moon 11:47 PM MDT (3/20) 8:54 AM MDT (3/20)
Length of Visible Light 13h 09m
Length of Day
12h 09m
Waning Gibbous, 83% of the Moon is Illuminated
Mar 20
Waning Gibbous
Mar 23
Last Quarter
Mar 30
New
Apr 7
First Quarter
Apr 15
Full

Hourly Weather History & Observations

Time (MDT) Temp. Windchill Dew Point Humidity Pressure Visibility Wind Dir Wind Speed Gust Speed Precip Events Conditions
12:51 AM 33.1 °F 24.9 °F 21.0 °F 61% 29.88 in 10.0 mi South 10.4 mph - N/A   Clear
1:51 AM 32.0 °F 28.7 °F 21.0 °F 64% 29.88 in 10.0 mi South 3.5 mph - N/A   Overcast
2:51 AM 32.0 °F 27.5 °F 24.1 °F 73% 29.86 in 10.0 mi SSW 4.6 mph - N/A   Overcast
3:51 AM 30.9 °F 27.5 °F 25.0 °F 79% 29.85 in 10.0 mi West 3.5 mph - N/A   Overcast
4:51 AM 34.0 °F 27.2 °F 21.0 °F 59% 29.83 in 10.0 mi SW 8.1 mph - N/A   Clear
5:51 AM 34.0 °F 25.0 °F 21.0 °F 59% 29.81 in 10.0 mi SW 12.7 mph - N/A   Clear
6:51 AM 35.1 °F 26.4 °F 21.9 °F 59% 29.82 in 10.0 mi SW 12.7 mph - N/A   Overcast
7:51 AM 35.1 °F 27.4 °F 21.9 °F 59% 29.82 in 10.0 mi WSW 10.4 mph - N/A   Clear
8:51 AM 42.1 °F 36.1 °F 23.0 °F 47% 29.78 in 10.0 mi SW 10.4 mph - N/A   Partly Cloudy
9:51 AM 46.9 °F - 21.9 °F 37% 29.77 in 10.0 mi WSW 10.4 mph - N/A   Mostly Cloudy
10:51 AM 46.0 °F 39.9 °F 21.9 °F 39% 29.78 in 10.0 mi WSW 13.8 mph - N/A   Overcast
11:24 AM 46.9 °F - 21.9 °F 37% 29.75 in 10.0 mi WNW 16.1 mph 20.7 mph N/A   Overcast
11:51 AM 46.9 °F - 23.0 °F 39% 29.78 in 10.0 mi West 15.0 mph - N/A   Overcast
12:51 PM 46.0 °F 39.3 °F 28.9 °F 51% 29.78 in 10.0 mi WNW 16.1 mph - N/A   Overcast
1:51 PM 46.0 °F 39.6 °F 27.0 °F 47% 29.77 in 10.0 mi WNW 15.0 mph - N/A   Overcast
2:51 PM 44.1 °F 36.2 °F 30.0 °F 58% 29.78 in 10.0 mi West 18.4 mph - 0.00 in   Overcast
3:51 PM 45.0 °F 38.2 °F 28.0 °F 52% 29.78 in 10.0 mi West 15.0 mph - N/A   Overcast
4:51 PM 45.0 °F 36.4 °F 24.1 °F 44% 29.78 in 10.0 mi West 23.0 mph - N/A   Scattered Clouds
5:51 PM 43.0 °F 35.1 °F 26.1 °F 51% 29.78 in 10.0 mi WSW 17.3 mph - N/A   Clear
6:51 PM 41.0 °F 32.8 °F 27.0 °F 57% 29.80 in 10.0 mi WSW 16.1 mph - N/A   Overcast
7:51 PM 39.9 °F 30.2 °F 23.0 °F 51% 29.83 in 10.0 mi NW 20.7 mph 27.6 mph N/A   Overcast
8:51 PM 37.0 °F 27.0 °F 26.1 °F 65% 29.84 in 10.0 mi WNW 18.4 mph 27.6 mph N/A   Overcast
9:37 PM 35.1 °F 24.5 °F 26.1 °F 70% 29.81 in 10.0 mi West 18.4 mph - N/A   Mostly Cloudy
9:46 PM 35.1 °F 23.8 °F 26.1 °F 70% 29.81 in 10.0 mi West 20.7 mph 31.1 mph N/A   Mostly Cloudy
9:51 PM 35.1 °F 24.1 °F 26.1 °F 70% 29.85 in 10.0 mi WNW 19.6 mph 31.1 mph N/A   Mostly Cloudy
10:51 PM 35.1 °F 22.7 °F 27.0 °F 72% 29.86 in 10.0 mi WNW 25.3 mph 33.4 mph N/A   Overcast
10:57 PM 35.1 °F 22.7 °F 27.0 °F 72% 29.82 in 10.0 mi WNW 25.3 mph 33.4 mph N/A   Overcast
11:51 PM 35.1 °F 23.0 °F 28.0 °F 76% 29.86 in 10.0 mi WNW 24.2 mph 34.5 mph N/A   Overcast